Time,TemperatureF,DewpointF,PressureIn,WindDirection,WindDirectionDegrees,WindSpeedMPH,WindSpeedGustMPH,Humidity,HourlyPrecipIn,Conditions,Clouds,dailyrainin,SolarRadiationWatts/m^2,SoftwareType,DateUTC
2013-09-25 00:11:00,41.0,33.0,-100.00,NW,318,5.0,7.0,72,0.00,,,0.00,0.000000,,2013-09-25 07:11:00,
2013-09-25 00:21:00,41.0,33.0,-100.00,NW,318,5.0,7.0,72,0.00,,,0.00,0.000000,,2013-09-25 07:21:00,
2013-09-25 00:33:00,41.0,33.0,-100.00,NW,318,5.0,7.0,72,0.00,,,0.00,0.000000,,2013-09-25 07:33:00,
2013-09-25 00:42:00,41.0,33.0,-100.00,NW,318,5.0,7.0,72,0.00,,,0.00,0.000000,,2013-09-25 07:42:00,
2013-09-25 01:11:00,42.0,33.0,-100.00,NNW,343,6.0,8.0,71,0.00,,,0.00,0.000000,,2013-09-25 08:11:00,
2013-09-25 01:21:00,42.0,33.0,-100.00,NNW,343,6.0,8.0,71,0.00,,,0.00,0.000000,,2013-09-25 08:21:00,
2013-09-25 01:32:00,42.0,33.0,-100.00,NNW,343,6.0,8.0,71,0.00,,,0.00,0.000000,,2013-09-25 08:32:00,
2013-09-25 01:42:00,42.0,33.0,-100.00,NNW,343,6.0,8.0,71,0.00,,,0.00,0.000000,,2013-09-25 08:42:00,
2013-09-25 02:11:00,43.0,35.0,-100.00,NW,304,5.0,7.0,73,0.00,,,0.00,0.000000,,2013-09-25 09:11:00,
2013-09-25 02:21:00,43.0,35.0,-100.00,NW,304,5.0,7.0,73,0.00,,,0.00,0.000000,,2013-09-25 09:21:00,
2013-09-25 02:33:00,43.0,35.0,-100.00,NW,304,5.0,7.0,73,0.00,,,0.00,0.000000,,2013-09-25 09:33:00,
2013-09-25 02:43:00,43.0,35.0,-100.00,NW,304,5.0,7.0,73,0.00,,,0.00,0.000000,,2013-09-25 09:43:00,
2013-09-25 03:12:00,42.0,34.0,-100.00,NNW,331,4.0,6.0,74,0.00,,,0.00,0.000000,,2013-09-25 10:12:00,
2013-09-25 03:23:00,42.0,34.0,-100.00,NNW,331,4.0,6.0,74,0.00,,,0.00,0.000000,,2013-09-25 10:23:00,
2013-09-25 03:32:00,42.0,34.0,-100.00,NNW,331,4.0,6.0,74,0.00,,,0.00,0.000000,,2013-09-25 10:32:00,
2013-09-25 03:42:00,42.0,34.0,-100.00,NNW,331,4.0,6.0,74,0.00,,,0.00,0.000000,,2013-09-25 10:42:00,
2013-09-25 04:12:00,43.0,35.0,-100.00,NW,317,1.0,6.0,72,0.00,,,0.00,0.000000,,2013-09-25 11:12:00,
2013-09-25 04:22:00,43.0,35.0,-100.00,NW,317,1.0,6.0,72,0.00,,,0.00,0.000000,,2013-09-25 11:22:00,
2013-09-25 04:33:00,43.0,35.0,-100.00,NW,317,1.0,6.0,72,0.00,,,0.00,0.000000,,2013-09-25 11:33:00,
2013-09-25 04:42:00,43.0,35.0,-100.00,NW,317,1.0,6.0,72,0.00,,,0.00,0.000000,,2013-09-25 11:42:00,
2013-09-25 05:12:00,45.0,36.0,-100.00,NW,305,6.0,8.0,70,0.00,,,0.00,0.000000,,2013-09-25 12:12:00,
2013-09-25 05:22:00,45.0,36.0,-100.00,NW,305,6.0,8.0,70,0.00,,,0.00,0.000000,,2013-09-25 12:22:00,
2013-09-25 05:32:00,45.0,36.0,-100.00,NW,305,6.0,8.0,70,0.00,,,0.00,0.000000,,2013-09-25 12:32:00,
2013-09-25 05:42:00,45.0,36.0,-100.00,NW,305,6.0,8.0,70,0.00,,,0.00,0.000000,,2013-09-25 12:42:00,
2013-09-25 06:11:00,43.0,34.0,-100.00,North,9,7.0,10.0,69,0.00,,,0.00,0.000000,,2013-09-25 13:11:00,
2013-09-25 06:22:00,43.0,34.0,-100.00,North,9,7.0,10.0,69,0.00,,,0.00,0.000000,,2013-09-25 13:22:00,
2013-09-25 06:32:00,43.0,34.0,-100.00,North,9,7.0,10.0,69,0.00,,,0.00,0.000000,,2013-09-25 13:32:00,
2013-09-25 06:42:00,43.0,34.0,-100.00,North,9,7.0,10.0,69,0.00,,,0.00,0.000000,,2013-09-25 13:42:00,
2013-09-25 07:11:00,39.0,32.0,-100.00,NNE,19,6.0,12.0,76,0.00,,,0.00,0.000000,,2013-09-25 14:11:00,
2013-09-25 07:22:00,39.0,32.0,-100.00,NNE,19,6.0,12.0,76,0.00,,,0.00,0.000000,,2013-09-25 14:22:00,
2013-09-25 07:32:00,39.0,32.0,-100.00,NNE,19,6.0,12.0,76,0.00,,,0.00,0.000000,,2013-09-25 14:32:00,
2013-09-25 07:42:00,39.0,32.0,-100.00,NNE,19,6.0,12.0,76,0.00,,,0.00,0.000000,,2013-09-25 14:42:00,
2013-09-25 08:11:00,43.0,35.0,-100.00,NNW,331,5.0,10.0,74,0.00,,,0.00,2.000000,,2013-09-25 15:11:00,
2013-09-25 08:22:00,43.0,35.0,-100.00,NNW,331,5.0,10.0,74,0.00,,,0.00,2.000000,,2013-09-25 15:22:00,
2013-09-25 08:33:00,43.0,35.0,-100.00,NNW,331,5.0,10.0,74,0.00,,,0.00,2.000000,,2013-09-25 15:33:00,
2013-09-25 08:43:00,43.0,35.0,-100.00,NNW,331,5.0,10.0,74,0.00,,,0.00,2.000000,,2013-09-25 15:43:00,
2013-09-25 09:43:00,52.0,37.0,-100.00,North,359,8.0,13.0,56,0.00,,,0.00,100.000000,,2013-09-25 16:43:00,
2013-09-25 10:23:00,55.0,35.0,-100.00,North,357,11.0,18.0,46,0.00,,,0.00,198.000000,,2013-09-25 17:23:00,
2013-09-25 10:34:00,55.0,35.0,-100.00,North,357,11.0,18.0,46,0.00,,,0.00,198.000000,,2013-09-25 17:34:00,
2013-09-25 10:42:00,55.0,35.0,-100.00,North,357,11.0,18.0,46,0.00,,,0.00,198.000000,,2013-09-25 17:42:00,
2013-09-25 11:13:00,56.0,32.0,-100.00,North,3,10.0,18.0,40,0.00,,,0.00,183.000000,,2013-09-25 18:13:00,
2013-09-25 11:21:00,56.0,32.0,-100.00,North,3,10.0,18.0,40,0.00,,,0.00,183.000000,,2013-09-25 18:21:00,
2013-09-25 11:32:00,56.0,32.0,-100.00,North,3,10.0,18.0,40,0.00,,,0.00,183.000000,,2013-09-25 18:32:00,
2013-09-25 11:42:00,56.0,32.0,-100.00,North,3,10.0,18.0,40,0.00,,,0.00,183.000000,,2013-09-25 18:42:00,
2013-09-25 12:11:00,59.0,31.0,-100.00,North,5,11.0,19.0,34,0.00,,,0.00,487.000000,,2013-09-25 19:11:00,
2013-09-25 12:22:00,59.0,31.0,-100.00,North,5,11.0,19.0,34,0.00,,,0.00,487.000000,,2013-09-25 19:22:00,
2013-09-25 12:31:00,59.0,31.0,-100.00,North,5,11.0,19.0,34,0.00,,,0.00,487.000000,,2013-09-25 19:31:00,
2013-09-25 12:42:00,59.0,31.0,-100.00,North,5,11.0,19.0,34,0.00,,,0.00,487.000000,,2013-09-25 19:42:00,
2013-09-25 13:12:00,61.0,29.0,-100.00,East,100,12.0,21.0,29,0.00,,,0.00,600.000000,,2013-09-25 20:12:00,
2013-09-25 13:22:00,61.0,29.0,-100.00,East,100,12.0,21.0,29,0.00,,,0.00,600.000000,,2013-09-25 20:22:00,
2013-09-25 13:32:00,61.0,29.0,-100.00,East,100,12.0,21.0,29,0.00,,,0.00,600.000000,,2013-09-25 20:32:00,
2013-09-25 13:42:00,61.0,29.0,-100.00,East,100,12.0,21.0,29,0.00,,,0.00,600.000000,,2013-09-25 20:42:00,
2013-09-25 14:12:00,63.0,29.0,-100.00,North,6,13.0,24.0,28,0.00,,,0.00,599.000000,,2013-09-25 21:12:00,
2013-09-25 14:22:00,63.0,29.0,-100.00,North,6,13.0,24.0,28,0.00,,,0.00,599.000000,,2013-09-25 21:22:00,
2013-09-25 14:34:00,63.0,29.0,-100.00,North,6,13.0,24.0,28,0.00,,,0.00,599.000000,,2013-09-25 21:34:00,
2013-09-25 14:44:00,63.0,29.0,-100.00,North,6,13.0,24.0,28,0.00,,,0.00,599.000000,,2013-09-25 21:44:00,
2013-09-25 15:14:00,64.0,30.0,-100.00,North,6,8.0,22.0,28,0.00,,,0.00,502.000000,,2013-09-25 22:14:00,
2013-09-25 15:23:00,64.0,30.0,-100.00,North,6,8.0,22.0,28,0.00,,,0.00,502.000000,,2013-09-25 22:23:00,
2013-09-25 15:33:00,64.0,30.0,-100.00,North,6,8.0,22.0,28,0.00,,,0.00,502.000000,,2013-09-25 22:33:00,
2013-09-25 15:42:00,64.0,30.0,-100.00,North,6,8.0,22.0,28,0.00,,,0.00,502.000000,,2013-09-25 22:42:00,
2013-09-25 16:12:00,61.0,29.0,-100.00,North,0,12.0,20.0,30,0.00,,,0.00,203.000000,,2013-09-25 23:12:00,
2013-09-25 16:22:00,61.0,29.0,-100.00,North,0,12.0,20.0,30,0.00,,,0.00,203.000000,,2013-09-25 23:22:00,
2013-09-25 16:34:00,61.0,29.0,-100.00,North,0,12.0,20.0,30,0.00,,,0.00,203.000000,,2013-09-25 23:34:00,
2013-09-25 16:42:00,61.0,29.0,-100.00,North,0,12.0,20.0,30,0.00,,,0.00,203.000000,,2013-09-25 23:42:00,
2013-09-25 17:12:00,61.0,27.0,-100.00,NNW,342,12.0,20.0,27,0.00,,,0.00,170.000000,,2013-09-26 00:12:00,
2013-09-25 17:22:00,61.0,27.0,-100.00,NNW,342,12.0,20.0,27,0.00,,,0.00,170.000000,,2013-09-26 00:22:00,
2013-09-25 17:32:00,61.0,27.0,-100.00,NNW,342,12.0,20.0,27,0.00,,,0.00,170.000000,,2013-09-26 00:32:00,
2013-09-25 17:42:00,61.0,27.0,-100.00,NNW,342,12.0,20.0,27,0.00,,,0.00,170.000000,,2013-09-26 00:42:00,
2013-09-25 18:12:00,59.0,28.0,-100.00,NNE,25,11.0,19.0,30,0.00,,,0.00,111.000000,,2013-09-26 01:12:00,
2013-09-25 18:22:00,59.0,28.0,-100.00,NNE,25,11.0,19.0,30,0.00,,,0.00,111.000000,,2013-09-26 01:22:00,
2013-09-25 18:32:00,59.0,28.0,-100.00,NNE,25,11.0,19.0,30,0.00,,,0.00,111.000000,,2013-09-26 01:32:00,
2013-09-25 18:42:00,59.0,28.0,-100.00,NNE,25,11.0,19.0,30,0.00,,,0.00,111.000000,,2013-09-26 01:42:00,
2013-09-25 19:12:00,53.0,29.0,-100.00,NNE,33,14.0,23.0,39,0.00,,,0.00,0.000000,,2013-09-26 02:12:00,
2013-09-25 19:21:00,53.0,29.0,-100.00,NNE,33,14.0,23.0,39,0.00,,,0.00,0.000000,,2013-09-26 02:21:00,
2013-09-25 19:32:00,53.0,29.0,-100.00,NNE,33,14.0,23.0,39,0.00,,,0.00,0.000000,,2013-09-26 02:32:00,
2013-09-25 19:42:00,53.0,29.0,-100.00,NNE,33,14.0,23.0,39,0.00,,,0.00,0.000000,,2013-09-26 02:42:00,
2013-09-25 20:12:00,51.0,34.0,-100.00,NE,48,13.0,19.0,51,0.00,,,0.00,0.000000,,2013-09-26 03:12:00,
2013-09-25 20:22:00,51.0,34.0,-100.00,NE,48,13.0,19.0,51,0.00,,,0.00,0.000000,,2013-09-26 03:22:00,
2013-09-25 20:34:00,51.0,34.0,-100.00,NE,48,13.0,19.0,51,0.00,,,0.00,0.000000,,2013-09-26 03:34:00,
2013-09-25 20:44:00,51.0,34.0,-100.00,NE,48,13.0,19.0,51,0.00,,,0.00,0.000000,,2013-09-26 03:44:00,
2013-09-25 21:24:00,49.0,34.0,-100.00,NE,41,11.0,18.0,56,0.00,,,0.00,0.000000,,2013-09-26 04:24:00,
2013-09-25 21:34:00,49.0,34.0,-100.00,NE,41,11.0,18.0,56,0.00,,,0.00,0.000000,,2013-09-26 04:34:00,
2013-09-25 21:44:00,49.0,34.0,-100.00,NE,41,11.0,18.0,56,0.00,,,0.00,0.000000,,2013-09-26 04:44:00,
2013-09-25 22:12:00,49.0,35.0,-100.00,South,183,6.0,16.0,59,0.00,,,0.00,0.000000,,2013-09-26 05:12:00,
2013-09-25 22:23:00,49.0,35.0,-100.00,South,183,6.0,16.0,59,0.00,,,0.00,0.000000,,2013-09-26 05:23:00,
2013-09-25 22:33:00,49.0,35.0,-100.00,South,183,6.0,16.0,59,0.00,,,0.00,0.000000,,2013-09-26 05:33:00,
2013-09-25 22:43:00,49.0,35.0,-100.00,South,183,6.0,16.0,59,0.00,,,0.00,0.000000,,2013-09-26 05:43:00,
2013-09-25 23:12:00,49.0,33.0,-100.00,NNE,24,15.0,20.0,54,0.00,,,0.00,0.000000,,2013-09-26 06:12:00,
2013-09-25 23:22:00,49.0,33.0,-100.00,NNE,24,15.0,20.0,54,0.00,,,0.00,0.000000,,2013-09-26 06:22:00,
2013-09-25 23:33:00,49.0,33.0,-100.00,NNE,24,15.0,20.0,54,0.00,,,0.00,0.000000,,2013-09-26 06:33:00,
2013-09-25 23:42:00,49.0,33.0,-100.00,NNE,24,15.0,20.0,54,0.00,,,0.00,0.000000,,2013-09-26 06:42:00,